Oskaloosa, IA

7:59 AM CDT on April 22, 2018 (GMT -0500)
Oskaloosa Municipal

Weather History for KOOA - July, 2013

Change the Weather History Date:

Friday, July 26, 2013

  Actual Average (KOTM) Record (KOTM)
Temperature  
Mean Temperature 68 °F -  
Max Temperature 78 °F 85 °F 107 °F (1936)
Min Temperature 57 °F 66 °F 50 °F (1911)
Cooling Degree Days 2    
Growing Degree Days 18 (Base 50)    
Moisture  
Dew Point 60 °F    
Average Humidity 75    
Maximum Humidity 94    
Minimum Humidity 42    
Precipitation  
Precipitation 0.31 in - - ()
Sea Level Pressure  
Sea Level Pressure 30.00 in    
Wind  
Wind Speed 7 mph (WNW)    
Max Wind Speed 17 mph    
Max Gust Speed 24 mph    
Visibility 9 miles    
Events Rain    
Averages and records for this station are not official NWS values.
T = Trace of Precipitation, MM = Missing Value Source: NWS Daily Summary

Daily Weather History Graph

Daily Weather History Graph

Search for Another Location

Airport or City:

Astronomy

Jul. 26, 2013 Rise Set
Actual Time 5:59 AM CDT 8:32 PM CDT
Civil Twilight 5:28 AM CDT 9:04 PM CDT
Nautical Twilight 4:48 AM CDT 9:43 PM CDT
Astronomical Twilight 4:04 AM CDT 10:27 PM CDT
Moon 10:43 PM CDT (7/26) 10:40 AM CDT (7/26)
Length of Visible Light 15h 35m
Length of Day
14h 32m
Waning Gibbous, 80% of the Moon is Illuminated
Jul 26
Waning Gibbous
Jul 29
Last Quarter
Aug 6
New
Aug 14
First Quarter
Aug 20
Full

Hourly Weather History & Observations

Time (CDT) Temp. Dew Point Humidity Pressure Visibility Wind Dir Wind Speed Gust Speed Precip Events Conditions
12:15 AM 68.9 °F 64.8 °F 87% 30.02 in 10.0 mi SSW 4.6 mph - N/A   Overcast
12:35 AM 68.9 °F 65.3 °F 88% 30.01 in 10.0 mi Calm Calm - N/A   Overcast
12:55 AM 68.4 °F 64.8 °F 88% 30.03 in 10.0 mi North 8.1 mph 17.3 mph N/A   Overcast
1:15 AM 69.4 °F 64.8 °F 85% 30.04 in 7.0 mi North 6.9 mph - 0.04 in Rain Heavy Rain
1:35 AM 67.6 °F 64.9 °F 91% 30.02 in 3.0 mi East 4.6 mph - 0.15 in Rain Rain
1:55 AM 67.3 °F 64.8 °F 92% 30.02 in 5.0 mi ENE 5.8 mph - 0.19 in Rain Light Rain
2:15 AM 66.4 °F 64.4 °F 93% 30.01 in 5.0 mi East 6.9 mph - 0.01 in Rain Rain
2:35 AM 66.2 °F 63.9 °F 92% 30.01 in 5.0 mi East 5.8 mph - 0.01 in Rain Light Rain
2:55 AM 65.8 °F 63.9 °F 93% 30.00 in 5.0 mi ESE 3.5 mph - 0.02 in Rain Rain
3:15 AM 65.7 °F 63.7 °F 93% 30.01 in 7.0 mi Calm Calm - N/A   Overcast
3:35 AM 65.5 °F 63.5 °F 93% 30.01 in 4.0 mi ESE 3.5 mph - 0.03 in Rain Light Rain
3:55 AM 65.3 °F 63.5 °F 94% 30.00 in 5.0 mi SE 3.5 mph - 0.04 in Rain Light Rain
4:15 AM 65.3 °F 63.5 °F 94% 30.00 in 4.0 mi Calm Calm - 0.01 in Rain Rain
4:35 AM 65.3 °F 63.5 °F 94% 30.00 in 3.0 mi SSW 3.5 mph - 0.04 in Rain Heavy Rain
4:55 AM 65.3 °F 63.5 °F 94% 29.99 in 3.0 mi South 4.6 mph - 0.05 in Rain Light Rain
5:15 AM 65.3 °F 63.5 °F 94% 29.98 in 3.0 mi South 5.8 mph - 0.01 in Rain Light Rain
5:35 AM 65.3 °F 63.5 °F 94% 29.98 in 4.0 mi South 4.6 mph - 0.01 in   Overcast
5:55 AM 65.3 °F 63.5 °F 94% 29.98 in 4.0 mi SSW 4.6 mph - 0.01 in   Mostly Cloudy
6:15 AM 65.3 °F 63.5 °F 94% 29.98 in 3.0 mi South 4.6 mph - N/A   Overcast
6:35 AM 65.7 °F 63.9 °F 94% 29.99 in 4.0 mi SSW 4.6 mph - N/A   Overcast
6:55 AM 66.0 °F 64.2 °F 94% 29.99 in 7.0 mi SSW 5.8 mph - N/A   Overcast
7:15 AM 66.2 °F 64.4 °F 94% 29.99 in 10.0 mi SSW 8.1 mph - N/A   Overcast
7:35 AM 66.2 °F 64.2 °F 93% 29.99 in 10.0 mi SSW 6.9 mph - N/A   Overcast
7:55 AM 66.2 °F 63.9 °F 92% 29.99 in 10.0 mi SSW 4.6 mph - N/A   Overcast
8:15 AM 67.1 °F 64.4 °F 91% 29.99 in 10.0 mi SSW 4.6 mph - N/A   Overcast
8:35 AM 67.8 °F 64.4 °F 89% 29.99 in 10.0 mi SSW 5.8 mph - N/A   Overcast
8:55 AM 68.5 °F 64.6 °F 87% 29.99 in 10.0 mi SW 9.2 mph - N/A   Overcast
9:15 AM 68.9 °F 64.9 °F 87% 29.99 in 10.0 mi SW 8.1 mph - N/A   Overcast
9:35 AM 70.3 °F 65.5 °F 85% 29.99 in 10.0 mi WSW 5.8 mph - N/A   Overcast
9:55 AM 72.0 °F 66.4 °F 83% 29.99 in 10.0 mi West 8.1 mph - N/A   Overcast
10:15 AM 72.5 °F 66.2 °F 81% 29.99 in 10.0 mi WNW 9.2 mph - N/A   Overcast
10:35 AM 72.3 °F 65.8 °F 80% 29.99 in 10.0 mi WNW 8.1 mph - N/A   Overcast
10:55 AM 73.8 °F 66.6 °F 78% 29.99 in 10.0 mi NW 5.8 mph - N/A   Mostly Cloudy
11:15 AM 74.1 °F 66.6 °F 77% 29.99 in 10.0 mi West 8.1 mph - N/A   Mostly Cloudy
11:35 AM 75.2 °F 66.6 °F 74% 29.99 in 10.0 mi NW 9.2 mph - N/A   Mostly Cloudy
11:55 AM 77.2 °F 66.0 °F 68% 29.99 in 10.0 mi NNW 8.1 mph - N/A   Scattered Clouds
12:15 PM 76.5 °F 65.1 °F 68% 29.99 in 10.0 mi NW 13.8 mph 18.4 mph N/A   Scattered Clouds
12:35 PM 77.4 °F 64.8 °F 65% 29.99 in 10.0 mi NW 10.4 mph 19.6 mph N/A   Scattered Clouds
12:55 PM 78.3 °F 65.8 °F 65% 29.99 in 10.0 mi NW 12.7 mph 20.7 mph N/A   Scattered Clouds
1:15 PM 78.3 °F 63.3 °F 60% 29.99 in 10.0 mi NW 17.3 mph 24.2 mph N/A   Scattered Clouds
1:35 PM 77.9 °F 61.2 °F 56% 29.99 in 10.0 mi WNW 15.0 mph 20.7 mph N/A   Scattered Clouds
1:55 PM 78.3 °F 57.4 °F 49% 29.99 in 10.0 mi NW 16.1 mph 21.9 mph N/A   Scattered Clouds
2:15 PM 77.9 °F 56.7 °F 48% 29.99 in 10.0 mi NNW 13.8 mph 23.0 mph N/A   Clear
2:35 PM 77.9 °F 56.1 °F 47% 29.99 in 10.0 mi NW 12.7 mph 20.7 mph N/A   Clear
2:55 PM 77.2 °F 53.6 °F 44% 29.99 in 10.0 mi NW 16.1 mph 23.0 mph N/A   Clear
3:15 PM 77.4 °F 52.9 °F 42% 29.99 in 10.0 mi NW 15.0 mph 20.7 mph N/A   Clear
3:35 PM 77.2 °F 52.5 °F 42% 29.99 in 10.0 mi NW 15.0 mph 20.7 mph N/A   Clear
3:55 PM 77.0 °F 52.2 °F 42% 29.99 in 10.0 mi NNW 13.8 mph 20.7 mph N/A   Clear
4:15 PM 77.0 °F 55.2 °F 47% 29.99 in 10.0 mi NNW 11.5 mph 18.4 mph N/A   Scattered Clouds
4:35 PM 76.3 °F 54.5 °F 47% 29.99 in 10.0 mi NW 11.5 mph 19.6 mph N/A   Scattered Clouds
4:55 PM 75.7 °F 55.8 °F 50% 29.99 in 10.0 mi NNW 12.7 mph 18.4 mph N/A   Scattered Clouds
5:15 PM 74.1 °F 55.0 °F 51% 30.00 in 10.0 mi NNW 11.5 mph 23.0 mph N/A   Scattered Clouds
5:35 PM 74.3 °F 54.5 °F 50% 30.00 in 10.0 mi NNW 17.3 mph 24.2 mph N/A   Scattered Clouds
5:55 PM 73.4 °F 54.0 °F 50% 30.01 in 10.0 mi NNW 11.5 mph 23.0 mph N/A   Clear
6:15 PM 72.0 °F 53.8 °F 53% 30.02 in 10.0 mi NNW 16.1 mph 23.0 mph N/A   Clear
6:35 PM 71.2 °F 54.0 °F 54% 30.02 in 10.0 mi NNW 10.4 mph - N/A   Clear
6:55 PM 70.2 °F 53.2 °F 55% 30.02 in 10.0 mi NNW 13.8 mph - N/A   Clear
7:15 PM 68.9 °F 52.7 °F 56% 30.02 in 10.0 mi NNW 11.5 mph - N/A   Clear
7:35 PM 68.0 °F 52.0 °F 56% 30.02 in 10.0 mi NNW 8.1 mph - N/A   Clear
7:55 PM 66.7 °F 53.1 °F 61% 30.02 in 10.0 mi NW 5.8 mph - N/A   Clear
8:15 PM 64.6 °F 54.1 °F 69% 30.03 in 10.0 mi NW 5.8 mph - N/A   Clear
8:35 PM 62.2 °F 54.5 °F 76% 30.02 in 10.0 mi WNW 4.6 mph - N/A   Clear
8:55 PM 60.6 °F 55.0 °F 82% 30.03 in 10.0 mi WNW 3.5 mph - N/A   Clear
9:15 PM 59.9 °F 54.5 °F 82% 30.03 in 10.0 mi NW 4.6 mph - N/A   Clear
9:35 PM 59.2 °F 54.5 °F 84% 30.03 in 10.0 mi NW 5.8 mph - N/A   Clear
9:55 PM 58.6 °F 54.1 °F 85% 30.03 in 10.0 mi WNW 5.8 mph - N/A   Clear
10:15 PM 59.2 °F 53.6 °F 82% 30.03 in 10.0 mi NW 5.8 mph - N/A   Clear
10:35 PM 59.0 °F 53.6 °F 82% 30.04 in 10.0 mi NW 5.8 mph - N/A   Clear
10:55 PM 58.5 °F 53.6 °F 84% 30.03 in 10.0 mi NNW 6.9 mph - N/A   Clear
11:15 PM 58.1 °F 53.2 °F 84% 30.04 in 10.0 mi NW 4.6 mph - N/A   Clear
11:35 PM 57.6 °F 53.2 °F 85% 30.04 in 10.0 mi NW 6.9 mph - N/A   Clear
11:55 PM 57.2 °F 53.1 °F 86% 30.04 in 10.0 mi NW 4.6 mph - N/A   Clear